Location: Moscow
(55.7500°N, 37.5830°E)
Time: 21:09:52
(UTC+03:00)

Tiros 1 despin weight - Pass Details

Date: 02 December 2021
Orbit: 592 x 641 km, 48.2° (Epoch: 21 January)

Event Time Altitude Azimuth Distance (km) Brightness Sun altitude
Rises 17:55:40 0° 261° (W) 2,825 ? -14.9°
Reaches altitude 10° 17:58:10 10° 250° (WSW) 1,923 ? -15.2°
Maximum altitude 18:01:55 28° 191° (SSW) 1,129 ? -15.7°
Enters shadow 18:05:39 10° 133° (SE) 1,915 ? -16.2°
